Terminal Aerodrome Forecast
Issued by NWS Wichita, KS

Home | Current Version | Previous Version | Graphics & Text | Print | Product List | Glossary On
Versions: 1 2 3 4 5 6 7 8 9 10 11 12 13 14 15 16
000
FTUS43 KICT 241100
TAFICT
TAF
KICT 241132Z 2412/2512 16015KT P6SM BKN150
     FM241500 19018G25KT P6SM SCT100
     FM250300 16012KT P6SM BKN120=

USA.gov is the U.S. government's official web portal to all federal, state and local government web resources and services.